Location: Dumpton Point
(51.3500°N, 1.4433°E)
Time: 04:54:11
(UTC+00:00)

Altair - Pass Details

Date: 03 October 2022
Orbit: 1501 x 1682 km, 47.2° (Epoch: 04 December)

Event Time Altitude Azimuth Distance (km) Brightness Sun altitude
Rises 08:38:19 0° 273° (W) 4,857 9.7 22.1°
Reaches altitude 10° 08:41:26 10° 271° (W) 3,890 9.3 22.5°
Maximum altitude 08:51:19 67° 192° (SSW) 1,791 8.5 23.6°
Drops below altitude 10° 09:01:21 10° 113° (ESE) 3,943 11.1 24.8°
Sets 09:04:32 0° 111° (ESE) 4,925 11.2 25.1°
